Location: Unspecified
(41.5000°N, 0.0000°E)
Time: 14:19:55
(UTC+00:00)

Vanguard 1 - Pass Details

Date: 26 June 2019
Orbit: 653 x 3830 km, 34.3° (Epoch: 16 July)

Event Time Altitude Azimuth Distance (km) Brightness Sun altitude
Exits shadow 02:26:53 11° 242° (WSW) 6,529 13.7 -17.0°
Maximum altitude 02:46:00 60° 170° (S) 2,851 12.1 -14.9°
Drops below altitude 10° 02:57:16 10° 94° (E) 4,031 13.7 -13.6°
Sets 02:59:51 0° 91° (E) 4,705 14.2 -13.3°
